Regional Weather Roundup
Issued by NWS Sioux Falls, SD

Home | Current Version | Previous Version | Text Only | Print | Product List | Glossary Off
Versions: 1 2 3 4 5 6 7 8 9 10 11 12 13 14 15 16 17 18 19 20 21 22 23 24 25 26 27 28 29 30 31 32 33 34 35 36 37 38 39 40 41 42 43 44 45 46 47 48 49 50

000
ASUS43 KFSD 282310
RWRFSD

WEATHER ROUNDUP FOR SE SOUTH DAKOTA/SW MINNESOTA/NW IOWA
NATIONAL WEATHER SERVICE SIOUX FALLS SD
600 PM CDT SAT MAY 28 2016

NOTE: "FAIR" INDICATES FEW OR NO CLOUDS BELOW 12,000 FEET WITH NO
SIGNIFICANT WEATHER AND OR OBSTRUCTIONS TO VISIBILITY.


SDZ038>040-050-052>070-290000-
SOUTHEAST SOUTH DAKOTA

CITY           SKY/WX    TMP DP  RH WIND       PRES   REMARKS
BROOKINGS      PTSUNNY   63  58  83 N7        29.83R
CHAMBERLAIN    CLOUDY    71  58  65 N6        29.87F
HURON          CLOUDY    66  59  78 NE6       29.85R
MADISON        CLOUDY    63  63 100 N9        29.84R
MITCHELL       LGT RAIN  62  59  90 NW6       29.86S
SIOUX FALLS    LGT RAIN  64  61  90 N8        29.81R
WINNER         FAIR      74  55  51 N7        29.88S
YANKTON        CLOUDY    63  55  77 NW17G23   29.83R
$$

MNZ071-072-080-081-089-090-097-098-290000-
SOUTHWEST MINNESOTA

CITY           SKY/WX    TMP DP  RH WIND       PRES   REMARKS
FAIRMONT       CLOUDY    63  59  88 CALM      29.78F
JACKSON        RAIN      64  59  82 N10       29.79S
LUVERNE        CLOUDY    64  55  72 N6        29.80R
MARSHALL       PTSUNNY   65  58  78 N12       29.80F
MONTEVIDEO     CLOUDY    66  61  82 N3        29.82S
PIPESTONE      MOSUNNY   66  57  72 N10       29.81R
REDWOOD FALLS  CLOUDY    67  59  75 N7        29.79R
TRACY          PTSUNNY   65  60  85 N12       29.80S
WINDOM         LGT RAIN  64  61  88 CALM      29.79S
WORTHINGTON    CLOUDY    65  59  81 NE14      29.80R
$$

IAZ001>003-012>014-020>022-031-032-NEZ013-014-SDZ071-290000-
NORTHWEST IOWA

CITY           SKY/WX    TMP DP  RH WIND       PRES   REMARKS
CHEROKEE       PTSUNNY   70  59  67 W6        29.75S
DENISON        MOSUNNY   63  61  94 SW15G22   29.77R FOG
ESTHERVILLE    RAIN      61  61 100 NE7       29.78R FOG
LE MARS        CLOUDY    68  61  77 W17       29.78R
ORANGE CITY    MOSUNNY   64  63  94 N7        29.77R
SHELDON        RAIN      66  63  88 N9G18     29.75R
SIOUX CITY     CLOUDY    66  59  78 NW17      29.79R
SPENCER        CLOUDY    64  60  87 N18       29.76R
STORM LAKE       N/A     73  55  53 SW10      29.76R
$$

ABBREVIATIONS USED IN REMARKS
   TC - TEMPERATURE IN CELSIUS
  WCI - WIND CHILL INDEX
   HX - HEAT INDEX
  VSB - VISIBILITY




USA.gov is the U.S. government's official web portal to all federal, state and local government web resources and services.